Location: Ffald-y-Brenin
(52.0833°N, 4.0000°W)
Time: 04:26:54
(UTC+00:00)

Cosmos 468 Rocket - Pass Details

Date: 18 February 2020
Orbit: 744 x 780 km, 74.0° (Epoch: 29 March)

Event Time Altitude Azimuth Distance (km) Brightness Sun altitude
Rises 06:24:16 0° 335° (NNW) 3,278 7.0 -10.2°
Reaches altitude 10° 06:26:41 10° 336° (NNW) 2,346 6.2 -9.8°
Maximum altitude 06:32:02 79° 64° (ENE) 798 4.2 -9.0°
Drops below altitude 10° 06:37:19 10° 151° (SSE) 2,318 7.0 -8.2°
Sets 06:39:41 0° 153° (SSE) 3,236 7.8 -7.8°
